Powrót do katalogu

STARLINK-34651

AktywnyŁącznośćSSO
NORAD 64861·PAYLOAD·🇺🇸 United States

Wystrzelony Jul 19, 2025 z Vandenberg Space Force Base

Loading…

Następne Przeloty (najbliższe 24 godziny)

TLE

ŚwieżeSource: CelesTrak SupGP

Epoka: Sep 14, 2026, 20:52 UTC

1 64861C 25152V   26257.86993056  .00033435  00000+0  10380-2 0  2576
2 64861  97.2846 108.4566 0001594  91.7495   6.2087 15.33418646    12

Śledź STARLINK-34651 w czasie rzeczywistym z AllMySat

Download on the App Store